Location: Melbourne
(37.8170°S, 144.9670°E)
Time: 06:14:49
(UTC+11:00)

Vanguard 1 Rocket - Visible Passes

Search period start: 18 January 2017 00:00
Search period end: 28 January 2017 00:00
Orbit: 650 x 4226 km, 34.3° (Epoch: 16 January)

Date Brightness Start Highest point End Pass type
(mag) Time Alt. Az. Time Alt. Az. Time Alt. Az.
18 Jan 8.9 00:32:37 10° W 00:46:41 47° NNW 00:46:43 47° NNW visible
18 Jan 10.0 20:41:47 10° WNW 21:06:19 79° N 21:19:43 10° E visible
18 Jan 9.0 23:16:51 10° W 23:35:07 64° NNW 23:39:17 42° NE visible
19 Jan 10.1 01:51:28 10° W 01:56:32 19° WNW 01:56:32 19° WNW visible
19 Jan 9.6 22:00:38 10° W 22:22:37 75° NNW 22:31:51 20° ENE visible
20 Jan 9.3 00:35:29 10° W 00:49:07 39° NW 00:49:07 39° NW visible
20 Jan 10.1 20:44:22 10° W 21:09:12 80° N 21:22:54 10° E visible
20 Jan 9.0 23:19:31 10° W 23:37:51 57° NNW 23:41:42 43° NNE visible
21 Jan 10.4 01:55:23 10° W 01:58:57 15° WNW 01:58:57 15° WNW visible
21 Jan 9.6 22:03:16 10° W 22:25:28 71° NNW 22:34:16 23° ENE visible
22 Jan 9.6 00:38:29 10° W 00:51:31 33° NW 00:51:31 33° NW visible
22 Jan 10.1 20:46:59 10° W 21:12:03 79° N 21:26:02 10° ENE visible
22 Jan 9.2 23:22:12 10° W 23:40:27 51° NNW 23:44:07 41° N visible
23 Jan 10.6 02:00:31 10° WNW 02:01:22 11° WNW 02:01:22 11° WNW visible
23 Jan 9.7 22:05:53 10° W 22:28:12 66° NNW 22:36:42 26° NE visible
24 Jan 9.9 00:41:42 10° W 00:53:55 27° NW 00:53:58 27° NW visible
24 Jan 10.2 20:49:38 10° W 21:14:50 76° NNW 21:29:09 10° ENE visible
24 Jan 9.5 23:24:57 10° WSW 23:42:52 44° NW 23:46:35 37° N visible
25 Jan 9.7 22:08:31 10° W 22:30:47 60° NNW 22:39:12 27° NE visible
26 Jan 10.3 00:45:19 10° W 00:56:02 21° NW 00:56:28 21° NW visible
26 Jan 10.2 20:52:17 10° W 21:17:32 72° NNW 21:31:50 11° ENE visible
26 Jan 9.8 23:27:50 10° W 23:45:06 37° NW 23:49:06 31° NNW visible
27 Jan 9.8 22:11:11 10° WSW 22:33:12 53° NW 22:41:45 26° NNE visible
